Simultaneous Nadir Overpasses (SNOs) Predictions

Prediction of SNOs between NOAA-19 and TERRA Satellite Orbit:

Table of predicted SNOs for the next 14.0 days since TLE Epoch: 10/26/2024
Index Date (NOAA-19) Time (NOAA-19) Lat,Lon (NOAA-19) SZA (NOAA-19 ) Date (TERRA) Time (TERRA) Lat,Lon (TERRA) SZA (TERRA ) Distance(km) Time Diff (sec)
1 10/27/2024 05:38:22 65.82, 78.28 79.26 10/27/2024 05:38:34 65.81, 78.25 79.25 1.59 12
2 10/29/2024 08:37:30 64.26, 32.08 78.58 10/29/2024 08:38:05 64.26, 32.05 78.56 1.38 35
3 10/29/2024 09:27:37 -67.06,-157.66 98.93 10/29/2024 09:26:38 -67.07,-157.63 98.91 1.34 59
4 10/31/2024 11:36:47 62.18, -14.41 77.44 10/31/2024 11:37:44 62.18, -14.39 77.41 0.85 57
5 10/31/2024 12:26:42 -65.64, 156.11 99.53 10/31/2024 12:26:06 -65.65, 156.16 99.50 2.45 36
6 11/02/2024 14:39:09 49.67, -66.65 67.59 11/02/2024 14:40:22 49.55, -66.03 67.24 46.12 73
7 11/02/2024 15:25:44 -64.34, 110.19 100.00 11/02/2024 15:25:31 -64.34, 110.19 100.00 0.15 13
8 11/04/2024 18:24:53 -62.64, 64.03 100.85 11/04/2024 18:25:02 -62.64, 64.03 100.85 0.10 9
9 11/06/2024 21:24:10 -60.47, 17.67 102.11 11/06/2024 21:24:40 -60.48, 17.69 102.12 1.50 30
10 11/06/2024 22:13:47 65.07,-171.06 81.93 11/06/2024 22:12:39 65.06,-171.09 81.95 1.53 68
11 11/09/2024 00:23:23 -58.54, -28.31 103.15 11/09/2024 00:24:14 -58.54, -28.32 103.19 0.49 51



Historial Predications of SNOs between NOAA-19 and TERRA
